This is the latest recevied weather packets stored in our database for station/object DB0OHL. If no packets are shown the sender has not sent any weather packets the latest 10 day(s).
| Time | Temp. | Humidity | Pressure | Rain* | Wind** | Luminosity | Snow |
|---|---|---|---|---|---|---|---|
| 1777455317 | 15.56° C | 48% | 1025.5 hPa | 0 mm | - | - | - |
| 1777454715 | 15.56° C | 50% | 1025.5 hPa | 0 mm | - | - | - |
| 1777454173 | 15.56° C | 49% | 1025.7 hPa | 0 mm | - | - | - |
| 1777453570 | 15° C | 50% | 1025.9 hPa | 0 mm | - | - | - |
| 1777452968 | 14.44° C | 48% | 1026 hPa | 0 mm | - | - | - |
| 1777451763 | 13.89° C | 51% | 1026.3 hPa | 0 mm | - | - | - |
| 1777451160 | 13.89° C | 52% | 1026.1 hPa | 0 mm | - | - | - |
| 1777450557 | 13.89° C | 54% | 1026.3 hPa | 0 mm | - | - | - |
| 1777449955 | 13.33° C | 55% | 1026.3 hPa | 0 mm | - | - | - |
| 1777449352 | 12.78° C | 55% | 1026.2 hPa | 0 mm | - | - | - |
| 1777448750 | 12.22° C | 57% | 1026.1 hPa | 0 mm | - | - | - |
| 1777448147 | 12.22° C | 58% | 1026.2 hPa | 0 mm | - | - | - |
| 1777447545 | 11.67° C | 59% | 1026.3 hPa | 0 mm | - | - | - |
| 1777446942 | 11.11° C | 60% | 1026.2 hPa | 0 mm | - | - | - |
| 1777446340 | 11.11° C | 61% | 1026.3 hPa | 0 mm | - | - | - |
| 1777445737 | 10.56° C | 64% | 1026.4 hPa | 0 mm | - | - | - |
| 1777445135 | 10.56° C | 64% | 1026.2 hPa | 0 mm | - | - | - |
| 1777444532 | 10° C | 65% | 1026.4 hPa | 0 mm | - | - | - |
| 1777443930 | 9.44° C | 67% | 1026.2 hPa | 0 mm | - | - | - |
| 1777443327 | 8.89° C | 68% | 1026.2 hPa | 0 mm | - | - | - |
| 1777442724 | 8.89° C | 68% | 1026.2 hPa | 0 mm | - | - | - |
| 1777442122 | 8.33° C | 70% | 1026.1 hPa | 0 mm | - | - | - |
| 1777441519 | 8.33° C | 70% | 1026 hPa | 0 mm | - | - | - |
| 1777440917 | 7.78° C | 70% | 1025.9 hPa | 0 mm | - | - | - |
| 1777440375 | 7.78° C | 71% | 1025.8 hPa | 0 mm | - | - | - |
* Rain latest hour (hover to see other rain measurements)
** Current wind speed in m/s (hover to see current wind gust speed)